[[{"header":{"parameterUnit":"m.s-1","parameterCategory":1,"la1":30.2991,"la2":30.254,"lo1":-89.0895,"lo2":-89.0444,"dy":0.0017,"dx":0.0017,"nx":28,"ny":28,"refTime":"2024-04-15T03:00:00:Z","depth":0,"parameterNumber":2,"parameterNumberName":"U-component_of_WINDS"},"data":[0,0,0,0,0,0,0,0,0,0,0,0,0,0,0,0,0,0,0,0,0,0,0,0,0,0,0,0,0,0,0,0,0,0,0,0,0,0,0,0,0,0,0,0,0,0,0,0,0,0,0,0,0,0,0,0,0,0,1.1871,1.1871,0,1.1849,1.1849,1.1849,1.1786,1.1785,1.1784,1.1782,1.176,1.1761,1.1761,0,0,0,0,0,0,0,0,0,0,0,0,0,1.1859,1.1859,1.1871,1.1871,1.1871,1.1849,1.1849,1.1849,1.1787,1.1785,1.1783,1.1782,1.176,1.176,1.1761,0,0,0,0,0,0,0,0,0,0,0,0,0,1.1853,1.1859,1.1871,1.1837,1.1834,1.185,1.1849,1.1849,1.1787,1.1785,1.1783,1.1781,1.1759,1.176,1.1761,1.1808,0,0,1.1764,1.1765,0,0,0,0,0,0,0,0,1.1854,1.1854,1.1843,1.184,1.1836,1.1819,1.1836,1.1835,1.1788,1.1805,1.1782,1.178,1.1781,1.178,1.178,1.1807,1.1806,1.1765,1.1765,1.1766,1.1766,0,0,0,0,0,0,0,1.1854,1.1854,1.1863,1.1842,1.1838,1.1823,1.182,1.1836,1.1805,1.1803,1.1799,1.1797,1.1779,1.178,1.178,1.1806,1.1764,1.1765,1.1766,1.1766,1.1868,1.187,0,0,0,0,0,0,1.1859,1.1855,1.1863,1.1862,1.184,1.1825,1.1821,1.1826,1.1804,1.1799,1.1799,1.1794,1.1779,1.1778,1.1778,1.183,1.1766,1.1766,1.1767,1.1866,1.1868,1.187,0,0,0,0,0,0,1.1859,1.1861,1.1864,1.1857,1.1856,1.1827,1.1833,1.1827,1.1828,1.1801,1.1795,1.1805,1.1777,1.1777,1.1801,1.1828,1.1767,1.1768,1.1863,1.1866,1.1869,1.1935,0,0,0,0,0,0,1.1859,1.1861,1.1879,1.1858,1.1857,1.1888,1.1835,1.1828,1.1829,1.1823,1.1805,1.1801,1.1776,1.18,1.1802,1.1829,1.1769,1.186,1.1865,1.1868,1.193,1.194,1.1948,0,0,0,0,0,1.1859,1.1899,1.188,1.1882,1.1879,1.1889,1.1889,1.1859,1.1832,1.1849,1.1832,1.1801,1.1826,1.1803,1.1805,1.1832,1.1859,1.1863,1.1868,1.1926,1.1938,1.1948,0,0,0,0,0,0,1.1924,1.1895,1.1874,1.1909,1.1902,1.1879,1.19,1.1873,1.1874,1.1868,1.1832,1.1828,1.1856,1.1847,1.1822,1.1875,1.1837,1.1842,1.188,1.1891,1.19,1.1901,1.1769,0,0,0,0,0,1.1942,1.1953,1.1928,1.196,1.1958,1.193,1.1933,1.1911,1.1902,1.1899,1.1883,1.1876,1.1882,1.1886,1.189,1.1929,1.1923,1.1949,1.1958,1.1965,1.197,1.1987,1.1998,1.1886,1.1886,1.1886,0,0,1.198,1.1966,1.1975,1.1973,1.1965,1.1976,1.1928,1.1942,1.195,1.1901,1.1922,1.1911,1.19,1.1931,1.1943,1.1923,1.2,1.1971,1.1978,1.1978,1.1993,1.2004,1.2013,1.1889,1.1888,1.1888,0,0,1.2054,1.2046,1.2071,1.2063,1.2052,1.2032,1.2039,1.2019,1.2009,1.203,1.1993,1.2002,1.2013,1.2006,1.2004,1.2075,1.2046,1.2078,1.2125,1.2142,1.2151,1.2159,1.2182,1.2191,1.2083,1.2083,1.2083,0,1.2103,1.2119,1.2087,1.2103,1.2103,1.2059,1.2084,1.2078,1.2069,1.2069,1.2047,1.2059,1.2049,1.2077,1.2094,1.2094,1.2099,1.2079,1.2152,1.216,1.2166,1.2188,1.2197,1.2087,1.2086,1.2086,1.2086,0,1.2177,1.2189,1.2211,1.2202,1.2204,1.2225,1.2196,1.2202,1.2179,1.2162,1.2183,1.2169,1.2169,1.2174,1.2153,1.2198,1.2186,1.2159,1.2119,1.2181,1.2201,1.2209,1.2092,1.2091,1.209,1.2089,0,0,1.2291,1.2264,1.2272,1.2267,1.2251,1.2259,1.2277,1.2276,1.2281,1.2276,1.229,1.23,1.2274,1.2272,1.225,1.2266,1.232,1.2236,1.2235,1.225,1.2367,1.2386,1.2396,1.2301,1.2303,1.2304,1.2367,0,1.236,1.2389,1.2361,1.2395,1.2404,1.2363,1.2378,1.237,1.2355,1.236,1.2343,1.235,1.2316,1.2314,1.2328,1.2311,1.2343,1.2306,1.2312,1.2313,1.2314,1.2407,1.2427,1.2488,1.2375,1.2376,1.2377,0,1.2443,1.2441,1.2476,1.2456,1.2459,1.2474,1.247,1.2476,1.2465,1.2453,1.245,1.2423,1.2438,1.2401,1.2421,1.2397,1.2398,1.239,1.2391,1.2389,1.2348,1.2406,1.2506,1.2515,1.2389,1.2388,1.2388,0,1.252,1.2526,1.2547,1.2544,1.2522,1.2533,1.2524,1.2511,1.2512,1.2509,1.2509,1.2508,1.2507,1.2507,1.248,1.2456,1.2503,1.2464,1.2492,1.2493,1.2502,1.2502,1.2603,1.2507,1.2506,1.2506,1.2506,0,1.2598,1.262,1.2581,1.2594,1.2618,1.2585,1.261,1.2597,1.2586,1.2595,1.256,1.2569,1.2534,1.2539,1.2518,1.2537,1.2537,1.2527,1.2521,1.2529,1.253,1.2528,1.2522,1.2509,1.2508,1.2508,1.2507,0,1.2687,1.2661,1.2682,1.2659,1.2653,1.2672,1.2652,1.2663,1.2645,1.2657,1.2658,1.263,1.2634,1.2608,1.2608,1.2594,1.2622,1.261,1.2625,1.2621,1.265,1.2647,1.2751,1.2762,1.2661,1.2662,1.2663,0,1.2737,1.2753,1.2732,1.2735,1.2728,1.2735,1.2735,1.2704,1.2706,1.2694,1.2706,1.2707,1.2706,1.2716,1.2695,1.2694,1.268,1.2717,1.268,1.2687,1.2679,1.2677,1.2678,1.2724,1.2726,1.2727,1.2728,0,1.2828,1.2815,1.2817,1.2814,1.2816,1.2812,1.2806,1.2811,1.2777,1.2781,1.2785,1.2785,1.2784,1.2785,1.2781,1.2771,1.2743,1.274,1.2746,1.2753,1.2761,1.2755,1.2644,1.2737,1.2736,1.2735,1.2735,1.2734,1.2898,1.2909,1.2896,1.2899,1.2891,1.2886,1.2895,1.2878,1.2881,1.2877,1.2859,1.2866,1.2854,1.2844,1.2837,1.2842,1.2824,1.2834,1.2835,1.2838,1.2842,1.2762,1.2841,1.2841,1.2841,1.284,1.284,0,1.2985,1.2974,1.2977,1.297,1.2972,1.2946,1.2939,1.2942,1.2948,1.2939,1.2939,1.2943,1.2944,1.2924,1.2922,1.293,1.2917,1.293,1.2928,1.2926,1.2859,1.2853,1.294,1.294,1.294,1.294,1.294,1.294,1.303,1.3048,1.3033,1.3047,1.3036,1.3042,1.304,1.3035,1.3027,1.3033,1.3034,1.302,1.3006,1.3003,1.3003,1.2997,1.2997,1.3014,1.3004,1.2941,1.2931,1.2922,1.2916,1.3015,1.3015,1.307,1.3071,1.3071]},{"header":{"parameterUnit":"m.s-1","parameterCategory":1,"la1":30.2991,"la2":30.254,"lo1":-89.0895,"lo2":-89.0444,"dy":0.0017,"dx":0.0017,"nx":28,"ny":28,"refTime":"2024-04-15T03:00:00:Z","depth":0,"parameterNumber":3,"parameterNumberName":"V-component_of_WINDS"},"data":[0,0,0,0,0,0,0,0,0,0,0,0,0,0,0,0,0,0,0,0,0,0,0,0,0,0,0,0,0,0,0,0,0,0,0,0,0,0,0,0,0,0,0,0,0,0,0,0,0,0,0,0,0,0,0,0,0,0,3.3677,3.3676,0,3.3612,3.3611,3.361,3.3486,3.3483,3.3481,3.3479,3.3413,3.3413,3.3414,0,0,0,0,0,0,0,0,0,0,0,0,0,3.3693,3.3693,3.3677,3.3676,3.3675,3.3612,3.3611,3.361,3.3486,3.3483,3.348,3.3477,3.3413,3.3413,3.3414,0,0,0,0,0,0,0,0,0,0,0,0,0,3.3663,3.3693,3.3677,3.3606,3.3599,3.3612,3.3611,3.361,3.3487,3.3483,3.3479,3.3476,3.3413,3.3413,3.3414,3.3492,0,0,3.3416,3.3417,0,0,0,0,0,0,0,0,3.3665,3.3662,3.3617,3.3611,3.3603,3.3553,3.3592,3.357,3.3488,3.3529,3.3479,3.3474,3.3463,3.3459,3.3455,3.3489,3.3486,3.3416,3.3417,3.3417,3.3418,0,0,0,0,0,0,0,3.3667,3.3664,3.3651,3.3616,3.3608,3.3577,3.3568,3.3588,3.3517,3.3525,3.3516,3.351,3.3458,3.3454,3.3452,3.3485,3.3416,3.3417,3.3418,3.3418,3.3576,3.358,0,0,0,0,0,0,3.3679,3.3667,3.3653,3.3649,3.3625,3.3579,3.357,3.3573,3.3517,3.3505,3.3513,3.3505,3.3455,3.3452,3.345,3.3534,3.3417,3.3418,3.3418,3.3572,3.3577,3.3581,0,0,0,0,0,0,3.368,3.3679,3.3656,3.3655,3.365,3.3583,3.3587,3.3573,3.3569,3.3508,3.3494,3.3523,3.3452,3.3449,3.3481,3.353,3.3418,3.3419,3.3568,3.3574,3.3579,3.3706,0,0,0,0,0,0,3.3681,3.368,3.3709,3.3657,3.3651,3.3689,3.359,3.3575,3.3571,3.3559,3.3513,3.3502,3.3449,3.3481,3.3482,3.3529,3.342,3.3563,3.3571,3.3577,3.3697,3.3715,3.3731,0,0,0,0,0,3.3682,3.3749,3.3712,3.3711,3.3686,3.3692,3.3689,3.3626,3.3576,3.3604,3.3564,3.3503,3.3525,3.3485,3.3486,3.3534,3.356,3.3569,3.3577,3.3689,3.3712,3.373,0,0,0,0,0,0,3.3809,3.374,3.3699,3.375,3.3728,3.3671,3.3705,3.3652,3.3644,3.3633,3.3556,3.3547,3.3589,3.3565,3.3522,3.3605,3.3533,3.3542,3.3618,3.3639,3.3656,3.3659,3.342,0,0,0,0,0,3.3843,3.3854,3.3794,3.3845,3.3836,3.3773,3.3774,3.3727,3.3701,3.3691,3.3654,3.3631,3.3632,3.3635,3.3633,3.3694,3.368,3.3727,3.3744,3.3758,3.3766,3.3793,3.3812,3.3609,3.3609,3.3608,0,0,3.3913,3.3877,3.3889,3.387,3.3847,3.3859,3.3766,3.3784,3.3792,3.3694,3.3722,3.3694,3.3663,3.371,3.3728,3.3691,3.3819,3.3769,3.378,3.378,3.3804,3.3823,3.384,3.3614,3.3613,3.3612,0,0,3.4047,3.4022,3.406,3.4039,3.4006,3.3963,3.3973,3.3924,3.3901,3.3928,3.3854,3.3863,3.3868,3.3847,3.3838,3.3963,3.3906,3.3965,3.4052,3.408,3.4096,3.4109,3.4151,3.4167,3.3974,3.3974,3.3974,0,3.4138,3.4154,3.4087,3.4108,3.4101,3.4013,3.405,3.4033,3.4002,3.3998,3.3957,3.3959,3.3933,3.3972,3.4002,3.3999,3.4006,3.3969,3.4099,3.4112,3.4124,3.4163,3.4179,3.3981,3.398,3.398,3.3979,0,3.4266,3.4278,3.4313,3.4283,3.428,3.4311,3.4247,3.4252,3.4207,3.4168,3.4196,3.4161,3.4149,3.4155,3.4112,3.4188,3.4165,3.4113,3.4039,3.4151,3.4186,3.4201,3.3991,3.3989,3.3987,3.3985,0,0,3.4476,3.4408,3.4422,3.4406,3.4363,3.437,3.4396,3.4384,3.4388,3.437,3.4388,3.4394,3.4344,3.4334,3.4287,3.4312,3.4409,3.4255,3.4253,3.4283,3.4488,3.4525,3.4544,3.4372,3.4375,3.4377,3.4489,0,3.4597,3.4636,3.4576,3.4628,3.4637,3.4554,3.4576,3.4551,3.4516,3.4519,3.448,3.4484,3.442,3.4412,3.4434,3.4393,3.4449,3.4384,3.4386,3.4387,3.4393,3.4562,3.4602,3.471,3.4503,3.4505,3.4507,0,3.4743,3.473,3.4784,3.4735,3.4736,3.4757,3.474,3.4744,3.4714,3.4687,3.4675,3.4619,3.4639,3.457,3.4595,3.4553,3.455,3.4531,3.4533,3.4529,3.4452,3.4559,3.4743,3.4758,3.4528,3.4526,3.4525,0,3.4887,3.4884,3.4914,3.4904,3.4849,3.4864,3.4842,3.4809,3.4805,3.479,3.4786,3.4775,3.4768,3.476,3.4702,3.4658,3.4734,3.4661,3.471,3.4712,3.4728,3.4727,3.4911,3.4732,3.4732,3.4731,3.4731,0,3.5027,3.5062,3.4977,3.4996,3.5032,3.4963,3.5001,3.497,3.4941,3.4951,3.488,3.4891,3.4815,3.4818,3.4773,3.4799,3.4798,3.4775,3.4762,3.4779,3.4782,3.4775,3.4765,3.4736,3.4735,3.4734,3.4733,0,3.5192,3.5137,3.5164,3.511,3.5097,3.5126,3.5079,3.5093,3.5054,3.5068,3.5067,3.5005,3.5004,3.4946,3.4934,3.4904,3.4948,3.4923,3.4958,3.4949,3.5001,3.4995,3.5184,3.5203,3.5015,3.5017,3.5019,0,3.5283,3.5308,3.5256,3.5258,3.5239,3.5243,3.5238,3.5171,3.5169,3.5136,3.5154,3.5148,3.5138,3.5141,3.5094,3.5084,3.5056,3.5123,3.5054,3.507,3.5053,3.5051,3.5052,3.5137,3.5139,3.5141,3.5143,0,3.545,3.5421,3.5417,3.5403,3.54,3.5386,3.5367,3.5373,3.5299,3.53,3.5298,3.5292,3.5278,3.5272,3.5253,3.5229,3.5173,3.5165,3.5175,3.5192,3.521,3.5198,3.4994,3.516,3.5159,3.5157,3.5156,3.5156,3.5579,3.5596,3.5561,3.5558,3.5538,3.5522,3.5532,3.5493,3.5491,3.5474,3.5435,3.5439,3.5407,3.5375,3.5357,3.5358,3.5324,3.534,3.5344,3.5348,3.5356,3.5213,3.5355,3.5354,3.5354,3.5353,3.5353,0,3.5739,3.5712,3.5711,3.5686,3.5684,3.5633,3.5609,3.561,3.5615,3.559,3.5582,3.5579,3.5572,3.5525,3.5513,3.5523,3.5497,3.5521,3.5518,3.5513,3.5389,3.538,3.5542,3.5542,3.5542,3.5542,3.5542,3.5542,3.5821,3.5847,3.5814,3.5828,3.5801,3.5804,3.5795,3.5779,3.5758,3.5758,3.5752,3.5722,3.5687,3.5671,3.5662,3.5649,3.5646,3.5679,3.5657,3.5541,3.5522,3.5505,3.5495,3.568,3.568,3.578,3.5781,3.5782]}]]